Terug naar catalogus

COSMOS 1124 DEB

LostHEO
NORAD 32981·DEBRIS·🇷🇺 Russia

Gelanceerd Aug 28, 1979 vanaf Plesetsk Cosmodrome

Loading…

Volgende Passages (komende 24 uur)

TLE

VerouderdSource: Space-Track

Epoch: Nov 18, 2010, 14:48 UTC

1 32981U 79077G   10322.61673781 -.00000048  00000-0  00000+0 0  9992
2 32981  70.8605 271.4751 4964611 103.2972  41.3490  1.99924610 24999

Volg COSMOS 1124 DEB in realtime met AllMySat

Download on the App Store